Weather reports worldwide

Advertisment
Madrid/Barajas, Spain (8221): temperature & dewpoint: 11.06.2019 05:00:00 - 17.06.2019 05:00:00 (CEST)Madrid/Barajas, Spain (8221): wind speed: 11.06.2019 05:00:00 - 17.06.2019 05:00:00 (CEST)Madrid/Barajas, Spain (8221): wind direction: 11.06.2019 05:00:00 - 17.06.2019 05:00:00 (CEST)Madrid/Barajas, Spain (8221): reduced air pressure: 11.06.2019 05:00:00 - 17.06.2019 05:00:00 (CEST)Madrid/Barajas, Spain (8221): visibility: 11.06.2019 05:00:00 - 17.06.2019 05:00:00 (CEST)
Date & Time tt [°C] td [°C] ff [km/h] ff [kn] dd ppp [hPa] vv [km]
17.06.2019 05:00:00 14,9 0,8 8 4 NW 1016,6 10
17.06.2019 04:00:00 17,4 5,2 4 2 NNE 1016,0 30
17.06.2019 03:00:00 19,1 5,1 8 4 E 1015,6 30
17.06.2019 02:00:00 20,1 3,7 5 3 ESE 1015,6 10
17.06.2019 01:00:00 20,4 1,3 8 4 ESE 1015,5 10
17.06.2019 00:00:00 20,8 -0,5 4 2 - 1015,4 10
16.06.2019 23:00:00 22,0 -1,0 0 0 N 1014,9 10
16.06.2019 22:00:00 24,9 -1,1 8 4 WNW 1013,4 10
16.06.2019 21:00:00 27,6 -1,4 15 8 WNW 1012,5 10
16.06.2019 20:00:00 29,8 -0,6 15 8 SW 1011,8 30
16.06.2019 19:00:00 29,3 0,0 15 8 W 1012,1 10
16.06.2019 18:00:00 30,8 2,1 11 6 SSW 1011,8 30
16.06.2019 17:00:00 30,0 1,4 8 4 W 1012,6 10
16.06.2019 16:00:00 29,2 2,4 4 2 NW 1013,4 10
16.06.2019 15:00:00 28,6 2,9 8 4 S 1014,1 10
16.06.2019 14:00:00 27,8 2,8 5 3 S 1015,0 10
16.06.2019 13:00:00 26,8 2,6 5 3 - 1015,8 10
16.06.2019 12:00:00 24,5 2,6 8 4 SSE 1016,8 10
16.06.2019 11:00:00 22,8 3,3 5 3 SSW 1017,4 30
16.06.2019 10:00:00 20,0 3,6 4 2 N 1018,4 30
16.06.2019 09:00:00 16,8 4,1 4 2 NNW 1019,1 30
16.06.2019 08:00:00 13,3 4,1 5 3 N 1019,4 10
16.06.2019 07:00:00 11,2 2,2 5 3 NNW 1019,6 10
16.06.2019 06:00:00 11,8 2,0 5 3 NNW 1019,1 10
16.06.2019 05:00:00 11,1 0,8 5 3 NNW 1019,3 10
16.06.2019 04:00:00 12,5 0,2 4 2 NNW 1019,1 30
16.06.2019 03:00:00 13,8 0,4 5 3 NW 1018,8 10
16.06.2019 02:00:00 15,2 0,6 8 4 NNW 1018,8 30
16.06.2019 01:00:00 16,7 -0,1 4 2 - 1018,4 10
16.06.2019 00:00:00 18,8 -0,6 4 2 - 1017,7 10
15.06.2019 23:00:00 22,1 -1,3 11 6 S 1016,7 30
15.06.2019 22:00:00 23,0 -0,5 9 5 SSE 1015,7 10
15.06.2019 21:00:00 25,0 -0,2 11 6 SSE 1014,9 10
15.06.2019 20:00:00 26,0 0,6 8 4 SE 1014,4 10
15.06.2019 19:00:00 26,4 0,9 11 6 S 1014,3 30
15.06.2019 18:00:00 26,4 0,4 13 7 S 1014,4 10
15.06.2019 17:00:00 25,7 0,3 11 6 S 1015,1 30
15.06.2019 16:00:00 25,0 0,5 11 6 SW 1015,5 29
15.06.2019 15:00:00 24,0 1,6 11 6 S 1016,2 30
15.06.2019 14:00:00 22,7 2,7 5 3 ESE 1017,0 21
15.06.2019 13:00:00 21,6 2,3 9 5 SSE 1017,6 30
15.06.2019 12:00:00 20,7 3,0 5 3 S 1017,9 10
15.06.2019 11:00:00 19,1 3,7 8 4 S 1018,2 30
15.06.2019 10:00:00 17,7 3,6 8 4 NNE 1018,6 10
15.06.2019 09:00:00 15,9 4,0 4 2 ESE 1018,7 30
15.06.2019 08:00:00 12,3 3,8 2 1 - 1019,0 10
15.06.2019 07:00:00 11,5 2,8 5 3 E 1018,7 30
15.06.2019 06:00:00 13,4 3,2 4 2 - 1017,5 10
15.06.2019 05:00:00 14,7 2,9 18 10 SW 1016,8 10
15.06.2019 04:00:00 15,3 2,4 22 12 SW 1016,5 30
15.06.2019 03:00:00 15,9 2,3 21 11 WSW 1016,1 30
15.06.2019 02:00:00 16,5 2,1 22 12 SW 1015,8 30
15.06.2019 01:00:00 17,4 2,2 22 12 WSW 1015,6 30
15.06.2019 00:00:00 18,6 2,0 26 14 WSW 1014,6 10
14.06.2019 23:00:00 19,5 1,9 21 11 SW 1014,1 30
14.06.2019 22:00:00 20,4 1,8 24 13 SW 1012,8 10
14.06.2019 21:00:00 22,1 0,6 29 16 SW 1011,7 30
14.06.2019 20:00:00 23,8 0,0 28 15 SSW 1010,4 30
14.06.2019 19:00:00 24,5 0,1 28 15 SW 1009,5 10
14.06.2019 18:00:00 25,3 0,0 26 14 SW 1009,2 10
14.06.2019 17:00:00 25,5 1,4 29 16 SW 1009,3 10
14.06.2019 16:00:00 25,6 -0,3 26 14 SW 1009,4 10
14.06.2019 15:00:00 25,4 1,6 24 13 SW 1009,5 10
14.06.2019 14:00:00 24,8 0,8 28 15 SW 1009,9 30
14.06.2019 13:00:00 23,6 2,8 24 13 SSW 1009,8 10
14.06.2019 12:00:00 23,1 3,6 18 10 SSW 1009,9 10
14.06.2019 11:00:00 22,2 3,7 26 14 SW 1010,1 30
14.06.2019 10:00:00 21,3 3,0 24 13 SW 1010,1 23
14.06.2019 09:00:00 18,7 2,3 4 2 WSW 1010,7 10
14.06.2019 08:00:00 13,8 0,8 4 2 NNE 1011,2 30
14.06.2019 07:00:00 12,3 0,4 5 3 NNW 1011,2 10
14.06.2019 06:00:00 14,9 1,4 8 4 WNW 1010,0 30
14.06.2019 05:00:00 17,7 7,7 11 6 S 1009,0 10
14.06.2019 04:00:00 17,5 6,7 9 5 SSE 1008,9 10
14.06.2019 03:00:00 18,0 0,6 8 4 ESE 1009,2 10
14.06.2019 02:00:00 19,1 0,1 8 4 SE 1008,8 10
14.06.2019 01:00:00 20,9 0,1 15 8 SSE 1008,6 10
14.06.2019 00:00:00 20,7 -0,2 5 3 N 1008,1 10
13.06.2019 23:00:00 22,9 -1,3 9 5 NW 1006,9 10
13.06.2019 22:00:00 24,2 -0,2 21 11 W 1005,8 30
13.06.2019 21:00:00 26,4 0,2 22 12 WSW 1004,7 10
13.06.2019 20:00:00 27,9 0,6 22 12 SW 1003,8 30
13.06.2019 19:00:00 28,6 -0,6 24 13 SW 1003,8 10
13.06.2019 18:00:00 28,8 -0,2 21 11 SSW 1004,0 10
13.06.2019 17:00:00 28,5 1,1 18 10 S 1004,3 10
13.06.2019 16:00:00 28,6 1,9 15 8 SSE 1004,9 30
13.06.2019 15:00:00 27,6 1,7 28 15 SSW 1005,8 30
13.06.2019 14:00:00 27,0 4,1 18 10 S 1006,5 30
13.06.2019 13:00:00 25,0 5,7 15 8 S 1007,6 10
13.06.2019 12:00:00 22,6 8,4 4 2 SSE 1008,8 10
13.06.2019 11:00:00 20,7 9,3 9 5 SSE 1009,4 30
13.06.2019 10:00:00 18,8 9,4 8 4 - 1010,2 10
13.06.2019 09:00:00 16,0 6,0 9 5 N 1010,9 30
13.06.2019 08:00:00 12,4 3,1 9 5 NNW 1011,4 10
13.06.2019 07:00:00 11,0 3,6 8 4 NNW 1011,6 10
13.06.2019 06:00:00 11,4 3,2 8 4 N 1011,0 30
13.06.2019 05:00:00 14,5 8,0 5 3 E 1009,7 30
13.06.2019 04:00:00 15,4 7,2 16 9 SSE 1009,3 30
13.06.2019 03:00:00 16,2 7,1 11 6 SE 1009,2 30
13.06.2019 02:00:00 16,5 6,8 13 7 ESE 1009,1 10
13.06.2019 01:00:00 15,3 -3,6 0 0 N 1009,5 10
13.06.2019 00:00:00 16,7 -2,9 2 1 - 1009,0 10
12.06.2019 23:00:00 19,6 -4,0 2 1 - 1008,3 10
12.06.2019 22:00:00 22,5 -3,8 8 4 W 1007,1 10
12.06.2019 21:00:00 24,8 -3,6 5 3 SW 1006,5 30
12.06.2019 20:00:00 25,4 -4,7 13 7 S 1006,6 30
12.06.2019 19:00:00 25,5 -7,2 22 12 SW 1006,8 10
12.06.2019 18:00:00 25,4 -4,1 15 8 SSE 1007,3 30
12.06.2019 17:00:00 24,7 -3,7 16 9 SSE 1007,8 10
12.06.2019 16:00:00 24,4 -3,1 13 7 SW 1008,7 10
12.06.2019 15:00:00 23,5 -2,7 9 5 SW 1009,8 10
12.06.2019 14:00:00 22,8 -2,1 11 6 SSW 1010,8 10
12.06.2019 13:00:00 21,4 -0,3 8 4 SSE 1011,9 30
12.06.2019 12:00:00 19,1 2,0 8 4 SE 1013,1 10
12.06.2019 11:00:00 17,2 2,4 5 3 SSW 1013,9 10
12.06.2019 10:00:00 14,6 1,9 4 2 NNW 1014,8 10
12.06.2019 09:00:00 11,8 1,4 5 3 N 1015,4 30
12.06.2019 08:00:00 7,7 0,6 0 0 N 1016,3 30
12.06.2019 07:00:00 5,8 -0,9 0 0 N 1016,5 30
12.06.2019 06:00:00 6,5 -1,4 2 1 - 1016,0 10
12.06.2019 05:00:00 7,7 -1,8 5 3 N 1015,6 10
12.06.2019 04:00:00 8,7 -2,0 9 5 NNW 1015,5 10
12.06.2019 03:00:00 9,6 -2,1 8 4 NNW 1015,3 10
12.06.2019 02:00:00 11,1 -2,4 8 4 NW 1015,0 30
12.06.2019 01:00:00 12,6 -3,3 4 2 NE 1014,7 30
12.06.2019 00:00:00 13,8 -3,1 4 2 ENE 1014,7 30
11.06.2019 23:00:00 15,1 -2,8 5 3 NNE 1014,3 30
11.06.2019 22:00:00 17,0 -2,7 11 6 N 1013,4 10
11.06.2019 21:00:00 19,7 -3,9 15 8 N 1012,2 10
11.06.2019 20:00:00 20,8 -3,0 21 11 N 1011,6 10
11.06.2019 19:00:00 21,3 -3,3 16 9 NNW 1011,1 10
11.06.2019 18:00:00 21,7 -2,6 22 12 NNW 1010,9 10
11.06.2019 17:00:00 22,2 -3,3 21 11 NNE 1010,9 10
11.06.2019 16:00:00 20,9 0,7 24 13 N 1011,3 10
11.06.2019 15:00:00 20,8 0,7 18 10 NNE 1011,5 10
11.06.2019 14:00:00 19,2 1,6 21 11 N 1011,9 10
11.06.2019 13:00:00 18,3 3,3 21 11 N 1011,8 30
11.06.2019 12:00:00 16,3 3,4 22 12 N 1012,1 10
11.06.2019 11:00:00 17,7 4,6 18 10 N 1011,1 30
11.06.2019 10:00:00 16,6 4,6 15 8 NE 1011,1 30
11.06.2019 09:00:00 15,4 4,7 22 12 NNE 1010,9 10
11.06.2019 08:00:00 15,8 4,2 15 8 NE 1010,4 10
11.06.2019 07:00:00 15,1 2,9 5 3 E 1010,4 30
11.06.2019 06:00:00 15,5 2,0 5 3 E 1009,9 10
11.06.2019 05:00:00 15,7 2,1 8 4 E 1010,0 10

tt = temperature
td = dewpoint
ff = wind speed
dd = wind direction
ppp = reduced air pressure
vv = visibility

Next stations